Location: Newark
(45.8167°N, 8.7833°E)
Time: 20:33:24
(UTC+00:00)

Falcon 9 debris - Visible Passes

Search period start: 17 July 2019 00:00
Search period end: 27 July 2019 00:00
Orbit: 431 x 439 km, 53.0° (Epoch: 17 July)

Date Brightness Start Highest point End Pass type
(mag) Time Alt. Az. Time Alt. Az. Time Alt. Az.
17 Jul 3.6 01:08:23 46° SE 01:08:23 46° SE 01:11:31 10° ENE visible
17 Jul 4.4 02:42:04 10° W 02:45:18 37° NNW 02:48:33 10° NE visible
18 Jul 5.0 00:27:29 22° E 00:27:29 22° E 00:29:07 10° ENE visible
18 Jul 4.0 02:00:45 19° W 02:02:58 46° NNW 02:06:19 10° NE visible
18 Jul 6.0 23:46:33 10° E 23:46:33 10° E 23:46:36 10° E visible
19 Jul 3.4 01:19:49 44° W 01:20:39 62° NNW 01:24:05 10° NE visible
19 Jul 5.2 02:55:14 10° WNW 02:58:11 25° N 03:01:07 10° NE visible
20 Jul 3.4 00:38:50 65° NE 00:38:50 65° NE 00:41:51 10° ENE visible
20 Jul 5.0 02:12:45 10° WNW 02:15:46 28° NNW 02:18:48 10° NE visible
20 Jul 4.8 23:57:50 27° ENE 23:57:50 27° ENE 23:59:34 10° ENE visible
21 Jul 4.8 01:31:05 15° WNW 01:33:23 31° NNW 01:36:32 10° NE visible
21 Jul 5.4 03:08:13 10° NW 03:11:07 24° N 03:14:01 10° ENE visible
21 Jul 5.8 23:16:45 13° ENE 23:16:45 13° ENE 23:17:14 10° ENE visible
22 Jul 4.5 00:50:01 30° WNW 00:51:01 37° NNW 00:54:17 10° NE visible
22 Jul 5.4 02:25:50 10° NW 02:28:42 24° N 02:31:34 10° ENE visible
23 Jul 4.1 00:08:55 46° N 00:08:55 46° N 00:12:02 10° NE visible
23 Jul 5.4 01:43:24 10° WNW 01:46:17 24° N 01:49:10 10° NE visible
23 Jul 5.0 03:20:49 10° NW 03:24:00 33° NNE 03:27:10 10° E visible
23 Jul 4.7 23:27:44 32° NE 23:27:44 32° NE 23:29:48 10° NE visible
24 Jul 5.3 01:00:59 10° WNW 01:03:52 25° N 01:06:49 10° NE visible
24 Jul 5.2 02:38:33 10° NW 02:41:37 29° NNE 02:44:40 10° ENE visible
24 Jul 5.4 22:46:28 19° ENE 22:46:28 19° ENE 22:47:32 10° ENE visible
25 Jul 5.2 00:19:43 18° WNW 00:21:28 28° NNW 00:24:30 10° NE visible
25 Jul 5.4 01:56:15 10° NW 01:59:13 26° N 02:02:10 10° ENE visible
25 Jul 5.8 22:05:01 12° ENE 22:05:01 12° ENE 22:05:15 10° ENE visible
25 Jul 4.9 23:38:14 28° NW 23:39:04 32° NNW 23:42:12 10° NE visible
26 Jul 5.5 01:13:53 10° NW 01:16:47 24° N 01:19:41 10° ENE visible
26 Jul 4.1 02:50:59 10° NW 02:54:22 51° NNE 02:57:44 10° ESE visible
26 Jul 4.5 22:56:16 36° NW 22:56:41 38° NNW 22:59:57 10° NE visible
